Temp
-5 -5 -5 -5 -4 -4 -5 -6 -7 -6 -5 -5 -6 -5 -5 -5 -4 -5 -5 -4 -5 -5 -5 -5 -5 -5 -5 -6 -6 -5 -5 -5 -5 -5 -6 -7 -6 -6 -6 -6 -6 -6 -6 -6 -6 -6 -7 -7 -7
-5 -6 -5 -3 -4 -6 -6 -6 -6 -6 -5 -5 -5 -5 -6 -4 -4 -5 -5 -5 -4 -5 -5 -5 -5 -5 -5 -5 -5 -5 -4 -5 -5 -5 -5 -6 -6 -6 -6 -6 -6 -6 -6 -6 -6 -6 -6 -7 -7
-7 -5 -4 -3 -6 -5 -5 -5 -6 -6 -6 -5 -5 -6 -5 -5 -5 -5 -5 -5 -5 -5 -5 -5 -5 -5 -5 -5 -5 -5 -4 -5 -5 -5 -5 -5 -6 -6 -6 -6 -6 -6 -6 -6 -6 -6 -6 -6 -7
-6 -5 -3 -7 -6 -6 -6 -5 -4 -6 -5 -5 -4 -5 -5 -5 -5 -5 -5 -5 -5 -5 -5 -5 -5 -5 -5 -5 -5 -5 -5 -5 -5 -5 -5 -5 -5 -6 -6 -5 -5 -6 -6 -6 -7 -7 -7 -7 -7
-5 -6 -6 -7 -7 -7 -6 -7 -5 -7 -5 -5 -5 -5 -5 -5 -5 -5 -5 -5 -5 -5 -5 -5 -5 -5 -5 -5 -5 -5 -5 -5 -5 -5 -5 -5 -5 -5 -5 -5 -5 -5 -6 -6 -6 -7 -7 -7 -7
-3 -6 -6 -7 -7 -6 -6 -7 -5 -5 -6 -6 -5 -5 -5 -5 -5 -6 -5 -5 -5 -5 -5 -5 -5 -5 -5 -5 -5 -5 -5 -5 -5 -5 -5 -5 -5 -5 -5 -5 -5 -5 -5 -6 -6 -6 -6 -7 -7
-6 -6 -6 -7 -7 -5 -6 -6 -5 -6 -4 -5 -5 -5 -5 -5 -5 -5 -6 -5 -5 -5 -5 -5 -5 -5 -6 -5 -5 -6 -5 -5 -5 -6 -5 -5 -5 -5 -6 -6 -5 -6 -5 -6 -6 -6 -6 -7 -6
-5 -7 -6 -7 -7 -6 -6 -7 -6 -7 -5 -4 -5 -5 -5 -5 -5 -5 -5 -5 -5 -5 -5 -5 -5 -6 -6 -6 -6 -6 -6 -6 -6 -6 -6 -6 -5 -5 -5 -5 -6 -5 -5 -6 -6 -6 -6 -6 -7
-7 -7 -7 -8 -7 -6 -7 -7 -5 -6 -7 -5 -5 -6 -5 -5 -5 -4 -5 -5 -5 -5 -6 -6 -6 -6 -6 -6 -6 -6 -6 -6 -6 -6 -6 -6 -5 -5 -5 -5 -5 -5 -6 -6 -6 -6 -6 -6 -6
-6 -7 -7 -7 -7 -7 -7 -6 -6 -5 -5 -4 -5 -5 -5 -5 -5 -5 -5 -5 -5 -5 -5 -6 -6 -6 -6 -6 -6 -6 -6 -6 -6 -6 -6 -5 -5 -5 -5 -5 -5 -5 -5 -6 -6 -6 -6 -6 -6
-7 -7 -7 -7 -7 -7 -8 -6 -6 -5 -5 -5 -6 -6 -6 -6 -6 -6 -6 -6 -6 -5 -6 -6 -6 -6 -6 -7 -7 -7 -6 -6 -6 -6 -6 -6 -5 -5 -5 -5 -5 -5 -5 -6 -6 -6 -6 -6 -6
-7 -7 -7 -8 -8 -8 -8 -7 -5 -7 -5 -6 -6 -6 -6 -7 -6 -6 -6 -6 -6 -6 -6 -6 -6 -6 -6 -6 -7 -7 -6 -6 -6 -6 -6 -6 -6 -6 -5 -5 -5 -5 -6 -6 -6 -5 -6 -6 -6
-8 -8 -8 -8 -8 -8 -8 -6 -6 -6 -6 -7 -7 -6 -6 -7 -7 -6 -6 -6 -6 -6 -5 -6 -6 -6 -6 -6 -6 -6 -7 -7 -6 -6 -6 -5 -6 -6 -5 -6 -6 -6 -6 -6 -6 -6 -6 -5 -6
-7 -6 -7 -7 -8 -8 -7 -7 -7 -7 -6 -7 -6 -6 -6 -6 -7 -7 -6 -7 -6 -6 -6 -6 -6 -6 -6 -6 -6 -6 -6 -6 -7 -6 -6 -5 -5 -5 -6 -6 -6 -6 -6 -6 -6 -5 -5 -6 -5
-7 -6 -6 -8 -8 -8 -8 -8 -8 -7 -5 -7 -6 -6 -6 -6 -6 -7 -7 -6 -6 -6 -6 -6 -6 -6 -5 -6 -6 -6 -6 -5 -6 -6 -5 -6 -5 -5 -6 -5 -6 -6 -6 -6 -6 -6 -6 -6 -6
-7 -7 -7 -7 -7 -7 -7 -6 -7 -6 -6 -7 -7 -8 -6 -6 -7 -7 -7 -7 -7 -6 -6 -6 -6 -6 -6 -6 -6 -6 -6 -6 -6 -5 -6 -6 -6 -6 -6 -5 -6 -6 -6 -6 -6 -6 -6 -5 -6
-7 -8 -8 -7 -7 -8 -7 -6 -7 -7 -7 -5 -7 -7 -6 -6 -7 -7 -7 -7 -7 -7 -7 -7 -7 -6 -7 -6 -6 -7 -7 -6 -5 -6 -6 -6 -6 -6 -5 -5 -5 -5 -5 -5 -5 -5 -6 -5 -6
-7 -8 -7 -6 -7 -8 -7 -7 -7 -7 -7 -6 -7 -8 -6 -6 -6 -6 -7 -7 -7 -7 -7 -7 -7 -6 -6 -7 -7 -7 -7 -6 -6 -6 -7 -7 -6 -6 -5 -5 -5 -6 -6 -5 -5 -5 -6 -6 -6
-7 -7 -7 -7 -8 -7 -7 -6 -7 -8 -6 -7 -6 -6 -6 -5 -5 -5 -6 -7 -6 -7 -7 -7 -7 -6 -6 -7 -7 -7 -7 -7 -7 -6 -6 -7 -6 -6 -5 -4 -5 -5 -6 -5 -5 -5 -6 -6 -6
-6 -7 -7 -7 -7 -7 -6 -6 -8 -8 -7 -6 -5 -6 -7 -6 -5 -6 -6 -6 -6 -6 -6 -7 -6 -7 -7 -7 -7 -7 -7 -7 -7 -7 -7 -6 -6 -4 -3 -4 -5 -5 -5 -5 -5 -5 -6 -5 -5
-7 -7 -7 -8 -7 -7 -6 -7 -7 -8 -7 -6 -5 -5 -6 -5 -6 -6 -6 -5 -6 -6 -6 -6 -7 -7 -7 -7 -7 -7 -7 -8 -8 -7 -7 -6 -6 -7 -7 -6 -6 -5 -5 -5 -5 -6 -5 -5 -5
-7 -6 -8 -8 -7 -6 -7 -7 -8 -6 -7 -6 -5 -6 -5 -6 -5 -6 -6 -6 -6 -6 -6 -6 -6 -6 -7 -7 -7 -7 -7 -7 -7 -7 -7 -7 -7 -7 -7 -7 -6 -6 -5 -6 -5 -5 -5 -5 -5
-7 -7 -7 -7 -7 -7 -7 -7 -7 -6 -6 -5 -6 -6 -6 -6 -5 -6 -6 -7 -6 -5 -5 -6 -6 -6 -6 -6 -7 -7 -7 -7 -7 -7 -7 -7 -7 -7 -7 -6 -6 -6 -6 -5 -6 -6 -5 -4 -5
-7 -7 -7 -8 -7 -7 -7 -7 -7 -7 -6 -6 -6 -6 -7 -6 -6 -7 -6 -6 -5 -5 -5 -5 -6 -6 -6 -6 -6 -6 -6 -6 -6 -6 -6 -6 -7 -7 -7 -6 -6 -6 -5 -5 -5 -6 -6 -6 -5
-8 -7 -8 -7 -7 -7 -7 -7 -6 -7 -6 -6 -6 -6 -7 -6 -6 -6 -6 -5 -5 -5 -5 -5 -6 -6 -6 -5 -6 -6 -6 -6 -5 -6 -6 -6 -6 -6 -6 -6 -6 -6 -6 -5 -5 -5 -6 -6 -5
-8 -8 -7 -8 -7 -7 -7 -7 -7 -8 -8 -7 -7 -6 -7 -6 -6 -6 -5 -5 -5 -6 -6 -6 -6 -6 -6 -6 -6 -6 -6 -6 -6 -6 -5 -5 -6 -6 -6 -6 -6 -6 -6 -6 -5 -5 -5 -5 -5
-7 -7 -7 -8 -7 -7 -7 -8 -8 -7 -8 -8 -7 -6 -6 -6 -6 -6 -6 -6 -6 -6 -6 -6 -6 -6 -6 -6 -6 -6 -6 -6 -6 -6 -6 -5 -5 -6 -6 -6 -6 -6 -6 -6 -5 -5 -5 -5 -5
-7 -8 -7 -7 -8 -7 -7 -8 -6 -7 -7 -8 -7 -6 -6 -6 -6 -7 -6 -6 -6 -6 -6 -6 -6 -6 -6 -7 -7 -6 -6 -6 -6 -6 -6 -6 -5 -6 -6 -6 -6 -6 -6 -6 -6 -5 -5 -5 -5
-7 -7 -7 -7 -8 -7 -8 -8 -6 -7 -7 -7 -7 -7 -6 -6 -6 -7 -7 -7 -6 -6 -6 -6 -6 -7 -7 -7 -7 -6 -6 -6 -7 -7 -7 -6 -6 -6 -6 -6 -6 -5 -5 -6 -6 -6 -5 -5 -5
-7 -7 -7 -6 -7 -6 -7 -7 -7 -7 -8 -6 -6 -7 -6 -6 -7 -7 -6 -6 -6 -6 -6 -7 -7 -7 -7 -7 -7 -7 -7 -7 -8 -8 -8 -7 -7 -6 -6 -6 -6 -6 -6 -6 -6 -6 -6 -6 -5
Height
5918 5919 5918 5916 5917 5911 5910 5911 5911 5910 5906 5906 5905 5907 5906 5905 5905 5908 5906 5907 5907 5908 5906 5907 5906 5905 5906 5906 5904 5904 5903 5904 5904 5904 5904 5905 5905 5906 5906 5906 5906 5906 5907 5906 5906 5905 5906 5906 5905
5919 5919 5921 5919 5915 5913 5911 5913 5912 5911 5908 5907 5906 5907 5907 5907 5907 5906 5907 5908 5909 5909 5908 5908 5908 5908 5908 5907 5906 5906 5906 5906 5906 5906 5907 5907 5907 5907 5907 5907 5908 5908 5909 5909 5908 5907 5907 5908 5907
5924 5923 5920 5916 5916 5916 5915 5910 5913 5911 5909 5907 5908 5906 5909 5908 5908 5908 5908 5909 5910 5911 5910 5910 5909 5909 5909 5910 5909 5909 5908 5909 5909 5908 5908 5909 5909 5908 5907 5908 5909 5909 5910 5910 5910 5909 5909 5910 5909
5926 5924 5919 5918 5918 5916 5913 5912 5911 5913 5910 5908 5906 5911 5909 5909 5909 5910 5910 5910 5911 5911 5911 5912 5911 5910 5910 5910 5911 5910 5911 5911 5910 5910 5910 5910 5910 5910 5909 5909 5910 5911 5912 5912 5910 5911 5911 5911 5910
5927 5923 5921 5921 5920 5919 5916 5917 5914 5911 5914 5910 5907 5907 5908 5907 5909 5910 5911 5912 5912 5911 5912 5912 5912 5912 5911 5911 5911 5912 5912 5912 5911 5911 5911 5911 5912 5912 5911 5911 5911 5912 5912 5912 5912 5912 5912 5912 5911
5925 5925 5922 5923 5923 5918 5919 5918 5916 5916 5916 5913 5910 5908 5908 5907 5909 5911 5913 5912 5912 5912 5913 5913 5913 5913 5913 5913 5912 5913 5912 5912 5912 5912 5912 5913 5913 5913 5914 5913 5913 5914 5913 5913 5913 5913 5913 5913 5912
5927 5922 5926 5929 5922 5920 5916 5913 5914 5916 5914 5913 5911 5911 5909 5907 5908 5910 5912 5911 5911 5911 5912 5912 5913 5913 5913 5914 5913 5913 5914 5915 5915 5915 5915 5915 5915 5914 5915 5916 5915 5915 5914 5914 5914 5914 5914 5913 5912
5931 5932 5931 5932 5929 5919 5913 5910 5919 5920 5919 5917 5912 5912 5911 5909 5908 5908 5911 5909 5910 5911 5911 5911 5912 5913 5914 5914 5914 5915 5916 5916 5916 5916 5916 5915 5915 5915 5914 5915 5916 5915 5916 5915 5915 5914 5914 5914 5913
5935 5935 5932 5930 5926 5928 5924 5924 5926 5920 5920 5918 5915 5915 5912 5910 5908 5906 5911 5909 5909 5909 5910 5910 5911 5913 5913 5914 5915 5916 5916 5916 5916 5917 5916 5916 5915 5916 5915 5915 5916 5916 5916 5915 5915 5914 5914 5914 5914
5936 5936 5932 5929 5928 5929 5926 5924 5929 5924 5921 5919 5914 5915 5912 5910 5907 5906 5908 5910 5908 5909 5909 5910 5911 5912 5912 5913 5915 5915 5915 5916 5916 5915 5915 5915 5915 5915 5915 5914 5915 5916 5916 5914 5914 5914 5913 5913 5913
5936 5935 5934 5930 5930 5930 5925 5925 5927 5927 5923 5920 5915 5914 5912 5909 5907 5906 5904 5908 5908 5908 5908 5909 5910 5911 5911 5912 5914 5915 5914 5914 5915 5914 5914 5913 5911 5910 5914 5914 5914 5916 5914 5914 5913 5913 5913 5913 5912
5937 5936 5936 5932 5928 5925 5923 5923 5922 5925 5920 5919 5915 5916 5912 5909 5907 5905 5904 5902 5905 5906 5909 5909 5909 5912 5911 5910 5912 5914 5914 5915 5914 5913 5914 5913 5910 5911 5914 5913 5913 5915 5915 5914 5913 5913 5912 5911 5910
5936 5937 5938 5937 5933 5924 5925 5924 5923 5921 5917 5910 5917 5914 5910 5908 5907 5906 5904 5902 5901 5902 5905 5909 5908 5911 5911 5911 5911 5912 5913 5914 5913 5913 5913 5913 5912 5914 5914 5913 5913 5913 5913 5912 5912 5911 5909 5909 5908
5934 5936 5937 5938 5936 5931 5926 5923 5920 5916 5915 5914 5912 5914 5913 5910 5908 5905 5904 5903 5900 5900 5900 5904 5905 5907 5910 5911 5912 5912 5915 5915 5914 5912 5913 5914 5914 5915 5913 5913 5913 5913 5912 5911 5911 5910 5908 5907 5907
5932 5935 5935 5937 5938 5936 5932 5929 5923 5920 5874 5910 5912 5911 5910 5912 5908 5906 5906 5902 5900 5900 5899 5902 5904 5906 5907 5907 5908 5909 5911 5914 5915 5913 5913 5915 5915 5914 5912 5912 5911 5911 5912 5911 5910 5910 5908 5907 5905
5931 5934 5934 5936 5937 5936 5936 5932 5929 5919 5915 5918 5917 5913 5914 5913 5910 5908 5907 5903 5902 5899 5899 5901 5904 5905 5905 5905 5906 5908 5909 5909 5911 5913 5912 5908 5909 5912 5913 5911 5911 5910 5910 5909 5909 5909 5907 5905 5904
5928 5931 5931 5932 5934 5933 5934 5933 5932 5923 5919 5921 5919 5913 5919 5918 5908 5909 5908 5906 5905 5901 5897 5900 5902 5903 5903 5907 5904 5904 5904 5904 5907 5909 5906 5907 5903 5902 5906 5911 5909 5908 5908 5908 5906 5906 5905 5904 5900
5926 5928 5929 5930 5930 5932 5933 5933 5931 5925 5921 5920 5924 5923 5922 5917 5912 5910 5908 5909 5905 5904 5902 5904 5903 5904 5904 5904 5902 5901 5902 5904 5905 5906 5903 5904 5899 5903 5901 5906 5903 5902 5905 5905 5904 5903 5902 5901 5900
5926 5925 5928 5930 5929 5932 5931 5931 5927 5921 5922 5922 5925 5924 5921 5919 5918 5914 5909 5910 5905 5906 5906 5907 5907 5905 5902 5902 5902 5902 5904 5904 5904 5904 5902 5895 5897 5897 5900 5900 5897 5897 5901 5901 5900 5899 5898 5897 5894
5923 5925 5923 5929 5929 5932 5933 5932 5929 5922 5920 5921 5924 5923 5921 5921 5915 5913 5910 5912 5907 5906 5909 5909 5908 5907 5906 5905 5905 5905 5903 5903 5900 5899 5900 5898 5897 5895 5893 5893 5896 5898 5898 5897 5896 5895 5894 5892 5891
5922 5924 5925 5926 5930 5932 5933 5932 5929 5926 5919 5922 5923 5922 5921 5919 5918 5912 5912 5914 5911 5911 5910 5910 5909 5907 5907 5907 5905 5903 5902 5898 5897 5899 5897 5895 5894 5889 5888 5889 5892 5893 5894 5894 5892 5889 5889 5888 5886
5919 5923 5922 5926 5928 5930 5930 5929 5930 5929 5926 5919 5922 5917 5918 5923 5917 5913 5914 5916 5914 5912 5910 5909 5910 5910 5909 5907 5904 5904 5903 5903 5901 5898 5896 5894 5893 5891 5889 5889 5891 5891 5891 5890 5889 5886 5884 5883 5882
5916 5920 5919 5923 5925 5927 5929 5926 5925 5927 5929 5925 5921 5917 5909 5900 5907 5915 5920 5918 5915 5915 5913 5913 5912 5910 5908 5907 5906 5905 5904 5902 5900 5899 5897 5896 5894 5892 5891 5890 5889 5889 5889 5888 5885 5883 5879 5878 5877
5916 5918 5918 5920 5924 5923 5920 5920 5919 5921 5923 5922 5922 5915 5907 5901 5905 5915 5919 5919 5918 5915 5913 5911 5911 5911 5909 5908 5907 5906 5905 5903 5901 5899 5898 5897 5895 5893 5892 5890 5889 5887 5886 5885 5883 5881 5878 5876 5873
5913 5906 5915 5916 5917 5918 5918 5917 5915 5918 5918 5920 5920 5919 5912 5909 5913 5916 5916 5916 5915 5914 5912 5912 5911 5910 5909 5908 5907 5905 5903 5901 5900 5899 5897 5895 5894 5893 5891 5889 5888 5886 5885 5883 5881 5879 5877 5874 5871
5907 5911 5915 5915 5914 5914 5915 5914 5917 5917 5916 5917 5916 5919 5917 5913 5915 5915 5913 5911 5911 5911 5911 5910 5909 5907 5906 5905 5904 5903 5902 5901 5899 5897 5896 5894 5892 5890 5889 5887 5886 5885 5884 5883 5881 5878 5876 5873 5871
5903 5906 5913 5911 5912 5910 5911 5908 5908 5908 5907 5916 5916 5916 5915 5913 5913 5914 5911 5910 5909 5909 5909 5908 5907 5906 5904 5903 5901 5900 5900 5898 5896 5896 5894 5893 5891 5889 5888 5886 5885 5883 5882 5881 5879 5877 5875 5872 5870
5899 5902 5905 5907 5904 5907 5909 5907 5907 5904 5906 5914 5914 5915 5913 5912 5912 5912 5910 5909 5909 5909 5908 5907 5905 5904 5902 5901 5899 5897 5895 5894 5892 5891 5891 5890 5888 5886 5885 5884 5883 5881 5879 5878 5876 5874 5872 5870 5868
5894 5894 5900 5906 5903 5904 5905 5903 5905 5906 5910 5910 5902 5908 5911 5910 5909 5909 5910 5909 5908 5908 5907 5907 5905 5903 5901 5899 5896 5893 5890 5887 5885 5884 5885 5886 5886 5885 5883 5881 5880 5878 5876 5874 5872 5870 5868 5867 5864
5892 5894 5899 5900 5905 5905 5903 5900 5904 5907 5905 5910 5909 5901 5906 5905 5903 5907 5909 5908 5908 5907 5907 5905 5903 5900 5898 5895 5892 5889 5886 5884 5881 5881 5882 5883 5883 5881 5880 5879 5876 5875 5871 5870 5868 5866 5864 5861 5859
Wind_Speed
18 16 14 11 16 16 13 14 7 9 6 9 5 3 7 7 9 7 6 5 7 7 8 8 9 9 9 9 11 10 12 12 12 11 11 10 9 9 8 7 8 10 9 9 9 9 10 9 8
17 12 4 9 17 16 17 11 6 7 9 5 8 7 4 3 7 9 6 5 3 6 8 8 9 9 9 9 10 10 10 10 10 11 10 9 8 8 8 7 6 5 6 8 7 7 9 8 5
13 4 9 18 15 13 12 7 20 12 3 10 4 9 5 2 4 6 7 6 4 6 9 9 9 8 8 7 8 9 9 9 9 10 10 10 9 8 9 7 5 2 2 4 5 4 6 7 4
13 14 12 25 24 12 5 3 12 8 12 8 7 3 4 2 3 3 4 6 5 6 6 8 9 7 7 7 7 9 9 10 10 9 9 10 9 8 8 7 5 3 2 2 3 2 2 2 3
7 12 27 17 26 14 17 14 10 10 11 9 9 8 4 2 3 0 2 4 2 3 3 5 7 7 6 6 7 8 8 8 9 8 7 8 9 8 6 6 4 4 2 2 1 2 1 1 1
5 13 21 18 19 16 14 12 7 6 6 14 15 11 8 6 2 2 1 4 3 1 1 3 4 6 7 7 6 7 7 6 6 6 4 5 6 5 6 5 3 3 2 1 1 2 2 1 1
19 16 15 11 20 14 15 5 14 14 12 12 13 14 11 9 5 2 2 2 3 2 2 1 2 4 7 7 5 4 5 6 5 5 5 6 6 3 3 6 2 2 1 1 1 1 1 1 2
14 5 6 11 16 16 23 27 24 12 17 14 13 13 11 8 7 4 1 5 4 2 1 2 1 1 4 5 2 2 6 7 6 5 4 6 7 5 3 3 4 2 1 0 1 1 1 2 3
4 3 4 9 13 15 20 19 14 10 9 12 11 11 11 9 6 6 2 5 4 4 3 3 3 2 1 2 3 4 4 5 7 6 5 6 7 8 4 3 5 4 2 2 2 3 3 3 3
3 7 8 13 16 12 16 13 14 11 15 16 16 10 10 9 8 8 6 3 8 7 6 5 4 2 2 2 2 1 3 5 5 7 7 9 9 10 7 3 5 4 3 3 3 3 3 4 4
10 5 7 7 11 14 12 20 19 13 14 14 15 14 13 10 9 8 8 3 8 8 9 7 6 3 3 3 2 2 2 3 3 4 7 11 14 9 9 5 5 4 3 4 4 4 4 4 4
4 11 14 18 21 22 19 15 21 18 20 16 17 11 11 11 14 12 10 10 7 9 7 8 9 4 4 4 3 4 4 3 3 7 8 10 7 4 10 5 4 6 4 5 6 5 6 6 7
5 3 4 12 15 19 17 20 21 11 17 19 12 13 16 14 12 13 14 10 10 9 6 6 9 7 7 6 5 1 2 3 4 3 5 6 4 1 5 5 5 7 6 6 6 7 7 6 5
7 9 5 1 6 15 20 26 32 17 18 9 13 13 16 17 14 15 17 13 7 8 9 4 6 8 7 7 6 5 6 4 4 7 6 4 3 1 5 4 10 8 4 3 6 9 10 11 9
6 7 3 2 6 11 19 23 20 26 12 14 12 16 20 22 18 16 18 18 12 6 7 8 8 7 8 8 6 6 4 3 4 6 6 7 8 7 5 6 7 2 3 5 7 8 9 10 10
6 4 6 5 15 13 13 13 17 29 22 16 12 7 18 16 16 16 20 20 22 12 5 4 6 8 9 10 6 5 7 8 5 3 6 8 7 8 9 7 6 6 7 8 9 9 11 13 10
8 2 9 11 9 11 12 17 21 26 28 17 29 17 16 14 11 18 20 17 17 21 10 10 4 8 9 8 4 6 9 11 10 7 11 9 10 5 7 8 9 12 11 12 13 13 14 11 11
11 17 13 10 5 8 18 17 18 22 22 26 23 17 13 13 13 18 18 17 16 15 16 10 6 2 3 6 3 7 8 10 12 10 12 13 11 11 11 12 14 9 12 13 15 15 16 18 16
8 18 7 7 1 12 14 14 19 24 21 21 18 19 11 14 15 17 20 16 20 17 14 8 8 7 6 5 3 2 7 6 10 7 7 11 14 13 15 14 14 13 14 17 16 16 18 19 20
12 7 8 11 6 15 19 7 14 22 18 22 15 14 9 5 9 13 19 17 19 22 17 13 10 9 7 5 4 6 8 7 7 4 6 6 11 14 11 14 16 13 15 14 18 18 18 21 21
1 12 1 15 19 21 9 4 10 17 26 24 20 14 8 5 5 11 16 16 18 17 18 17 14 13 11 6 6 9 8 7 13 10 8 8 8 11 7 4 8 9 11 16 17 16 16 18 21
19 14 9 17 13 9 5 8 9 16 17 25 21 18 12 5 8 11 13 12 13 14 15 14 14 13 14 14 13 11 9 8 9 10 12 13 12 10 5 2 2 4 7 11 14 15 16 19 20
18 18 21 22 5 10 6 22 25 19 13 15 22 17 16 10 11 10 7 8 9 8 11 10 9 10 11 11 11 10 8 7 6 7 8 7 10 12 8 4 3 4 7 9 12 15 16 16 18
16 16 13 25 21 14 20 22 24 24 12 15 16 16 10 18 17 15 9 6 6 8 9 11 12 11 10 9 8 7 8 9 8 7 7 7 6 8 8 8 7 7 8 9 11 13 15 17 17
22 21 24 4 8 21 23 23 22 13 10 8 11 11 12 20 19 15 14 11 11 9 11 12 12 12 12 12 12 11 10 10 10 10 8 8 7 6 6 7 8 9 9 10 11 12 12 14 14
22 28 22 13 24 28 28 26 9 10 5 9 14 12 14 21 21 22 20 17 13 11 13 15 15 15 14 14 14 15 15 13 13 13 12 9 7 8 8 8 8 9 9 9 10 12 13 14 14
23 23 18 25 31 31 14 8 16 20 18 6 15 17 16 22 24 21 20 11 10 11 15 18 19 18 17 17 18 17 18 15 14 15 14 11 9 8 9 9 9 8 9 10 12 13 14 15 16
25 27 27 24 21 21 27 9 14 11 7 12 14 16 19 20 24 13 12 11 12 13 16 18 19 18 19 18 18 19 18 17 19 20 16 14 13 9 9 9 10 11 12 13 14 14 15 17 17
30 30 24 24 15 25 6 15 12 14 10 11 18 19 17 18 19 18 10 15 15 15 15 17 19 20 20 19 20 22 21 21 19 19 16 17 16 15 15 15 15 16 16 15 16 18 19 18 19
12 22 20 21 14 3 20 26 17 9 20 19 25 17 18 13 20 12 11 12 12 14 16 16 18 18 18 19 18 22 22 21 18 13 14 17 18 18 18 18 18 16 18 18 19 21 24 25 26
Wind_Direction
44 57 42 52 37 42 52 62 79 13 359 5 0 108 62 48 72 93 88 84 94 78 69 59 65 69 62 62 63 66 71 76 80 82 83 95 93 95 94 84 78 70 68 73 79 83 78 73 73
38 51 31 23 38 38 57 53 43 26 349 348 356 63 85 73 71 81 89 81 76 81 74 64 61 68 60 64 61 60 66 67 68 73 72 67 77 85 85 80 82 83 68 69 84 89 81 80 84
61 332 21 34 17 47 60 94 40 20 201 339 12 11 84 86 93 102 99 90 94 83 74 64 60 73 70 79 77 66 68 67 63 62 62 56 45 54 66 61 56 63 86 77 77 106 103 85 85
41 1 50 27 357 56 353 14 72 30 9 16 357 101 52 69 113 135 131 116 112 94 83 69 64 77 73 76 77 76 74 69 52 51 52 55 49 38 53 53 49 46 39 63 73 135 153 55 40
84 91 39 29 0 356 7 5 24 6 13 32 16 0 20 32 52 294 195 149 125 95 80 67 67 86 78 71 78 69 66 62 48 44 45 45 46 44 42 57 57 70 82 68 92 85 74 62 2
59 45 50 29 4 9 359 21 44 38 57 31 16 20 12 339 348 25 315 226 202 199 18 36 59 74 86 68 83 71 67 60 50 44 44 43 34 29 26 41 46 49 50 83 56 71 65 23 268
7 44 62 9 355 4 349 73 11 15 5 45 15 359 8 0 352 311 347 315 273 239 228 111 51 73 82 87 90 79 35 25 20 3 352 336 351 1 353 346 21 17 41 345 327 343 352 10 320
351 38 60 309 314 356 332 33 29 17 352 5 28 352 345 341 352 331 258 294 283 288 258 223 214 40 77 88 102 21 23 14 13 348 317 294 313 305 329 349 275 210 159 34 18 345 345 351 354
131 183 15 10 316 351 343 356 12 34 353 359 45 7 355 328 325 322 1 281 267 275 277 258 245 223 110 81 71 42 27 23 16 9 341 315 302 290 266 318 276 272 296 261 259 289 320 334 353
70 339 347 288 286 330 352 352 23 47 356 359 38 24 8 353 350 323 315 299 287 261 257 254 269 249 208 179 120 29 357 24 28 357 331 326 312 276 261 281 285 269 250 261 285 282 291 308 324
299 0 311 349 320 329 338 9 17 42 359 22 34 14 20 15 4 344 318 317 279 278 255 252 253 249 239 230 179 220 250 345 349 1 346 346 326 245 242 239 272 281 282 296 303 313 304 309 311
275 344 355 349 342 348 345 350 8 347 25 30 25 24 37 46 25 9 343 313 290 274 257 264 271 244 255 250 215 218 235 265 351 2 345 359 2 343 231 231 267 279 281 284 302 315 309 319 298
265 142 353 328 324 329 335 349 346 26 14 43 31 26 44 43 32 28 22 346 293 287 260 230 247 239 242 236 242 229 296 303 294 283 328 354 358 234 250 235 267 278 262 283 309 314 319 296 295
270 252 159 232 305 298 331 343 335 6 330 37 59 64 36 40 37 34 31 23 334 283 267 215 232 240 225 245 251 224 185 201 233 277 272 298 310 327 340 250 250 257 309 318 309 293 302 307 303
250 227 110 9 302 303 332 332 326 327 200 33 10 38 45 34 29 34 37 30 20 324 257 243 236 241 246 238 249 274 280 215 224 264 294 303 293 306 333 341 345 199 318 311 312 334 326 298 312
170 130 107 207 262 285 325 313 345 336 342 344 4 18 35 43 30 23 37 24 30 28 241 269 250 254 242 220 227 272 294 286 272 266 300 283 283 297 309 302 305 281 298 295 302 317 332 311 329
129 214 241 217 245 283 312 334 333 330 339 6 1 29 11 36 48 44 32 29 22 40 69 136 179 268 221 213 198 260 262 267 269 275 270 291 262 287 290 290 287 284 288 296 300 308 310 309 306
177 229 232 246 188 250 302 304 323 321 336 355 11 12 23 19 33 57 49 31 47 51 72 62 84 131 144 148 147 243 271 290 288 292 276 266 311 283 279 276 265 275 294 295 296 298 300 300 302
235 216 76 178 148 273 307 315 343 320 326 343 352 25 37 7 33 43 63 43 53 51 58 62 102 89 76 113 207 296 293 293 309 266 318 301 308 301 276 262 276 293 289 292 295 300 295 293 290
233 212 23 253 247 298 298 304 310 314 328 322 346 5 11 9 43 50 59 52 49 53 47 55 67 78 87 95 10 331 334 352 340 25 0 331 307 301 291 243 238 256 277 305 301 297 293 290 291
267 119 308 287 265 271 275 12 274 287 314 330 329 331 22 175 69 42 48 50 49 54 52 52 55 59 66 63 26 21 9 11 16 17 7 359 351 0 343 259 248 262 293 296 306 284 290 288 286
229 168 193 260 271 206 292 288 288 292 303 335 322 321 15 91 87 57 35 35 43 39 51 43 48 49 54 51 44 35 23 22 18 6 5 2 3 1 11 281 254 302 308 306 310 305 285 285 290
240 201 202 240 231 272 285 277 273 295 322 349 340 318 326 225 69 26 10 12 12 14 35 41 29 38 45 43 50 50 40 31 17 5 3 11 10 22 27 28 5 324 319 321 341 338 321 305 297
255 232 234 248 250 242 246 258 274 268 300 346 342 341 348 330 5 316 333 300 314 332 351 359 2 354 5 4 7 14 19 26 20 4 349 359 27 22 19 22 20 9 358 352 351 349 346 329 312
226 269 263 230 277 256 254 260 266 262 282 321 334 347 309 333 346 330 311 282 277 307 320 327 337 335 334 328 324 329 336 348 358 4 354 348 350 356 358 6 8 3 0 359 353 349 348 342 346
219 216 236 266 261 258 250 248 257 262 209 288 332 341 309 307 321 331 328 299 276 286 300 307 313 313 309 309 309 314 318 321 326 331 340 353 350 345 341 347 349 347 348 351 350 350 349 349 346
215 209 207 247 260 260 286 293 253 185 172 254 294 300 296 289 298 310 319 319 271 274 292 301 303 305 310 313 315 318 314 310 307 301 304 311 326 343 343 339 334 335 332 338 339 340 344 349 350
216 207 217 218 278 281 285 273 245 214 168 289 300 297 297 286 283 285 302 290 275 278 287 296 300 314 319 332 341 331 322 309 297 284 282 291 291 303 308 308 311 314 318 321 322 325 329 330 334
206 216 211 209 233 255 244 231 222 215 228 260 234 306 307 299 278 278 289 285 287 292 296 306 317 322 327 335 343 343 341 333 317 273 271 280 291 298 299 301 307 310 309 314 319 324 323 322 324
283 234 223 210 194 293 278 292 284 213 269 284 276 252 291 284 268 275 293 293 309 314 314 322 326 330 336 343 348 351 346 348 344 299 280 296 301 303 305 309 312 314 313 314 314 316 316 318 318